sim
Sign-in with your pilot id or email,
or register
Callsign
Passwort

Schedule Details

Flight Number: EWG3596
Departure: Hannover Langenhagen Airport (EDDV) at 02:20
Arrival: Palma de Mallorca Airport (LEPA) at 04:40
Route: Eurowings Passenger Schedule. Enter filed route here before submitting Pirep.

Weather Information
Getting current METAR information for EDDV 222150Z 32001KT CAVOK 20/15 Q1022
Getting current METAR information for LEPA 222200Z 00000KT CAVOK 25/17 Q1019 NOSIG

Schedule Frequency

Route Map